Location: ?avyn�
(49.1591°N, 14.2103°E)
Time: 23:24:53
(UTC+00:00)

Daily predictions for brighter satellites

Satellite Brightness Start Highest point End
(mag) Time Altitude Azimuth Time Altitude Azimuth Time Altitude Azimuth
Cosmos 1603 3.8 15:37:00 10° SSW 15:42:44 89° ESE 15:48:33 10° NNE
SL-16 R/B 3.7 15:38:29 10° WSW 15:43:31 31° NW 15:48:34 10° NNE
USA 234 3.9 15:37:54 10° SE 15:44:21 62° SW 15:50:50 10° WNW
Cosmos 1939 Rocket 3.3 15:44:24 10° SE 15:48:18 42° ENE 15:52:13 10° N
SeaSat 1 4.4 15:45:12 10° N 15:48:57 22° NW 15:52:42 10° W
Okean 3 Rocket 4.0 15:46:32 10° N 15:50:54 44° ENE 15:55:12 10° SSE
NOSS 2-1 (D) 4.2 15:48:16 10° S 15:51:00 24° ESE 15:53:43 10° ENE
ATLAS 3B R/B 3.5 15:47:36 10° NW 15:54:42 63° SW 16:02:05 10° SSE
GEOS 3 Rocket 4.0 15:51:08 10° ESE 15:56:04 44° NE 16:00:59 10° NNW
Cosmos 1862 3.5 15:54:03 10° N 15:57:56 50° ENE 16:01:48 10° SSE
Cosmos 2098 Rocket 4.1 15:52:39 10° N 15:58:42 75° E 16:05:47 10° SSE
Cosmos 1461 3.2 15:55:16 10° SSW 15:59:23 50° ESE 16:03:23 10° NE
USA 308 3.9 15:56:10 10° SSW 16:00:01 34° SE 16:03:43 11° ENE
ATLAS 5 CENTAUR R/B 3.5 15:54:45 10° NW 16:00:05 48° SW 16:06:22 10° SSE
SL-4 R/B 4.4 15:56:14 10° W 16:00:14 30° SW 16:04:21 10° SSE
CZ-2D R/B 4.2 15:57:15 10° SE 16:00:32 27° ENE 16:03:49 10° N
Cosmos 1812 Rocket 4.3 15:56:24 10° SSW 16:00:46 57° WNW 16:05:13 10° N
PSLV R/B 4.3 15:58:54 10° SE 16:02:12 32° ENE 16:05:31 10° N
CZ-4C R/B 3.8 16:00:17 10° NW 16:05:26 25° NNE 16:10:56 11° ENE
SJ 16-02 1.5 16:01:35 10° NNW 16:05:51 48° ENE 16:10:06 10° SE
CZ-2C R/B 3.1 16:00:55 10° SSE 16:06:00 82° WSW 16:10:53 10° NNW
Cosmos 1943 3.6 16:00:43 10° SW 16:06:19 63° WNW 16:11:55 10° NNE
Cosmos-2242 3.4 16:04:43 10° SSW 16:09:00 69° W 16:13:19 10° N
FengYun 1-2 T 4.2 16:03:28 10° SSE 16:09:05 82° ENE 16:14:42 10° NNW
NOAA 6 4.0 16:07:27 10° SSE 16:12:35 73° ENE 16:17:44 10° NNW
CZ-4B R/B 3.7 16:08:36 10° SE 16:13:32 36° ENE 16:18:24 10° N
CORIOLIS 4.1 16:09:20 10° SSE 16:14:40 69° ENE 16:20:04 10° N
Cosmos 1842 Rocket 4.3 16:11:32 10° SSE 16:15:26 32° E 16:19:24 10° NNE
Cosmos 1833 Rocket 4.4 16:15:03 10° ESE 16:16:43 11° E 16:17:02 11° E
CZ-4B R/B 3.7 16:15:14 10° S 16:19:27 58° WSW 16:23:28 10° NNW
CZ-4 R/B 3.3 16:24:42 13° NE 16:24:42 13° NE 16:25:48 10° NNE
Iridium 2 3.6 16:21:17 10° N 16:25:05 90° WNW 16:28:50 10° S
Cosmos 1766 Rocket 3.7 16:21:54 10° NNW 16:26:15 77° W 16:30:35 10° S
SL-08 R/B 4.3 16:25:53 10° N 16:30:31 48° WNW 16:35:02 10° SW
USA 305 3.1 16:26:41 10° SW 16:30:50 60° SSE 16:33:32 21° ENE
Cosmos 1606 2.7 16:28:06 10° S 16:31:47 58° E 16:35:30 10° NNE
Sich 1 4.4 16:29:52 10° NNE 16:32:14 18° NE 16:32:14 18° NE
ARGOS 3.6 16:28:48 10° SE 16:33:48 40° ENE 16:38:49 10° N
Okean O Rocket 2.1 16:32:29 10° SE 16:36:34 37° ENE 16:40:41 10° N
USA 276 2.0 16:33:46 10° W 16:36:55 73° N 16:38:19 29° ENE
COSMO-SKYMED 1 3.4 16:34:16 16° NE 16:37:05 30° E 16:40:56 10° SSE
Cosmos 1464 Rocket 4.0 16:34:04 10° S 16:40:24 77° E 16:46:48 10° NNE
Aureole 3 4.4 16:38:04 10° SSW 16:43:16 84° WNW 16:49:53 10° N
ERBS 3.2 16:43:56 10° SSW 16:46:45 29° SE 16:47:12 28° ESE
Meteor 2-19 Rocket 4.4 16:41:17 10° N 16:47:24 85° E 16:53:30 10° S
Cosmos 1763 Rocket 4.4 16:43:52 10° SSE 16:47:58 25° E 16:48:40 24° E
Cosmos 2221 2.4 16:45:36 10° S 16:49:51 78° E 16:54:09 10° NNE
NOSS 2-1 (E) 2.7 16:47:41 10° SW 16:50:57 89° SE 16:52:18 33° NE
USA 267 3.7 16:47:44 19° NE 16:52:26 54° NNW 16:58:45 10° W
CZ-2C R/B 2.8 16:47:58 10° NNE 16:53:03 45° E 16:58:00 10° S
ISS -3.6 16:50:26 10° W 16:53:49 67° NNW 16:54:49 41° NE
Cosmos 1340 Rocket 2.7 16:51:46 10° N 16:55:48 64° ENE 16:59:49 10° SSE
deb Chang Zheng 4 3.4 16:53:26 10° SSE 16:57:42 71° ENE 17:02:01 10° N
YAOGAN 1 3.5 16:58:27 28° NE 16:58:27 28° NE 17:01:31 10° N
Cosmos 1933 4.1 16:54:21 10° SSE 16:57:31 31° ESE 16:57:31 31° ESE
deb Kosmos-1763 3.8 16:54:46 10° SSW 16:58:09 65° ESE 16:59:08 41° NE
Cosmos 2322 Rocket 4.2 16:57:55 10° N 16:59:25 11° NNE 16:59:31 11° NNE
Cosmos 990 Rocket 4.0 16:54:51 10° NNW 17:00:00 55° ENE 17:05:05 10° SE
Nadezhda 4 Rocket 4.0 16:53:47 10° N 17:00:07 88° WSW 17:06:27 10° S
SL-19 R/B 4.5 16:55:40 10° NNE 17:01:28 60° ESE 17:07:41 10° S
Cosmos 1271 Rocket 4.0 16:57:45 10° SW 17:01:28 42° WNW 17:05:16 10° N
USA 229 DEB 4.0 16:54:58 10° NW 17:02:05 58° NE 17:07:27 20° ESE
USA 229 4.0 16:55:04 10° NW 17:02:10 57° NE 17:07:28 21° ESE
USA 306 2.8 16:58:15 10° WSW 17:02:31 87° SSE 17:04:01 39° ENE
Lacrosse 5 rocket 2.6 16:59:32 10° WNW 17:02:50 27° N 17:03:54 24° NNE
Landsat 5 3.9 17:02:19 36° ENE 17:03:07 40° E 17:07:01 10° SSE
Cosmos 1092 Rocket 4.0 17:00:45 10° N 17:07:05 66° ENE 17:13:23 10° SSE
Cosmos 1408 Rocket 4.1 17:03:44 10° NNW 17:08:01 60° W 17:12:17 10° S
Cosmos 1743 Rocket 3.4 17:05:40 10° N 17:10:01 79° ENE 17:14:20 10° SSE
ATLAS 2AS CENTAUR R/B 4.0 17:02:54 10° W 17:10:04 38° NNW 17:15:29 16° NNE
CZ-4 R/B 4.3 17:06:52 10° SSE 17:10:57 71° ENE 17:15:05 10° N
SL-16 R/B 4.1 17:08:54 10° N 17:11:16 14° NNE 17:11:16 14° NNE
Cosmos 1697 Rocket 2.9 17:06:51 10° NNW 17:12:18 48° NE 17:14:22 33° ESE
Cosmos 1980 Rocket 3.0 17:07:37 10° NNW 17:12:37 30° NE 17:12:43 30° NE
H-2A R/B 2.4 17:08:03 10° S 17:13:18 68° WSW 17:18:27 10° NNW
COSMOS 2406 4.3 17:11:35 10° SSE 17:15:10 25° ESE 17:15:10 25° ESE
USA 307 2.8 17:13:19 10° WSW 17:17:36 85° NNW 17:18:33 54° ENE
SJ-11-01 4.2 17:13:47 10° SSE 17:18:32 88° ENE 17:23:20 10° NNW
Cosmos 44 3.1 17:13:47 10° NW 17:18:40 87° NE 17:20:56 30° SE
Cosmos 2034 Rocket 4.1 17:15:39 10° SSW 17:21:49 77° W 17:28:00 10° N
ATLAS CENTAUR R/B 2.4 17:18:03 10° WSW 17:22:02 43° NW 17:23:56 27° NNE
Cosmos 1627 Rocket 4.3 17:16:19 10° N 17:22:35 72° E 17:28:42 10° SSE
Meteor 2-14 Rocket 4.3 17:17:05 10° N 17:23:12 65° ENE 17:29:14 10° SSE
Lacrosse 5 3.7 17:19:29 10° WNW 17:23:54 30° SW 17:28:17 10° S
SKYMED 2 3.5 17:22:52 26° NNE 17:25:19 89° ESE 17:29:40 10° SSW
NOSS 3-1 (A) 4.0 17:18:10 10° NW 17:25:29 76° NE 17:31:39 21° SE
Cosmos 1428 Rocket 4.3 17:19:26 10° N 17:25:35 77° E 17:31:43 10° SSE
Cosmos 1809 Rocket 4.3 17:21:57 10° N 17:28:07 81° E 17:34:12 10° SSE
Cosmos 1898 Rocket 3.4 17:23:36 10° NNW 17:28:54 70° ENE 17:31:16 33° SE
MOS 1-B Rocket 3.9 17:24:30 10° NNE 17:30:09 80° WNW 17:36:17 10° SSW
NOSS 3-1 (C) 4.2 17:23:01 10° NW 17:30:24 76° SW 17:39:05 10° SSE
Cosmos 1656 3.8 17:26:00 10° NNW 17:31:30 72° WSW 17:37:02 10° SSE
NOSS 2-1 (C) 4.1 17:29:00 10° WSW 17:31:59 34° NW 17:32:11 33° NNW
GEOS 3 Rocket 4.5 17:29:00 10° SSE 17:34:05 49° SW 17:39:08 10° NW
Cosmos 2084 3.8 17:30:20 10° NW 17:33:54 50° N 17:33:54 50° N
Meteor 2-21 Rocket 4.4 17:29:11 10° N 17:35:17 60° ENE 17:41:17 10° SSE
Meteor 1-20 Rocket 4.5 17:30:01 10° NNW 17:35:48 73° W 17:41:36 10° S
NOAA 15 4.4 17:31:51 10° SSE 17:37:08 72° ENE 17:42:25 10° N
Cosmos 1461 4.5 17:35:00 10° W 17:38:37 27° NW 17:39:48 24° N
NOSS 2-2 (D) 4.5 17:34:28 10° NNW 17:38:55 45° NE 17:38:55 45° NE
SL-08 RB Rocket 3.7 17:34:53 10° SSE 17:39:33 85° WSW 17:44:14 10° NNW
USA 308 3.0 17:35:30 10° WSW 17:39:45 68° NNW 17:39:46 68° NNW
NOSS 2-2 (E) 4.3 17:36:25 10° NW 17:41:17 54° NE 17:41:37 53° NE
NOSS 2-1 (D) 4.5 17:38:25 10° W 17:41:11 29° NW 17:41:11 29° NW
Cosmos 468 Rocket 3.8 17:37:31 10° SSW 17:42:36 69° ESE 17:42:42 68° E
SJ 16-02 4.0 17:40:51 10° NW 17:44:05 20° W 17:47:17 10° SW
Cosmos 2279 Rocket 4.1 17:38:10 10° SSE 17:43:30 50° ESE 17:43:30 50° ESE
Cosmos 2360 4.1 17:41:39 10° NNW 17:47:26 76° ENE 17:48:27 60° SE
Cosmos 1634 Rocket 3.9 17:43:53 10° S 17:50:12 86° E 17:56:35 10° N
Cosmos 1805 Rocket 3.9 17:47:36 10° NNW 17:51:54 61° W 17:56:10 10° S
CZ-4B R/B 4.4 17:48:53 10° SSW 17:54:02 40° W 17:59:07 10° NNW
CZ-4C R/B 3.1 17:49:01 10° NW 17:55:36 48° NE 17:56:09 47° NE
CZ-4 R/B 3.4 18:00:42 21° NNW 18:00:42 21° NNW 18:02:09 10° NNW
IRS-1C Rocket 4.4 18:00:19 53° N 18:00:19 53° N 18:04:22 10° NNW
Cosmos 1833 Rocket 2.8 17:54:00 10° SSW 17:58:47 61° SSE 17:58:47 61° SSE
ATLAS 5 CENTAUR R/B 3.0 17:52:22 10° NW 17:58:54 45° N 17:58:54 45° N
Cosmos 2026 Rocket 4.5 18:02:12 10° NNW 18:08:15 57° W 18:14:12 10° S
USA 305 4.2 18:06:41 10° W 18:09:32 37° WNW 18:09:32 37° WNW
Sich 1 4.5 18:06:47 10° NNW 18:09:18 31° NW 18:09:18 31° NW
Okean O Rocket 3.6 18:09:11 10° SSW 18:13:00 28° W 18:16:50 10° NW
COSMO-SKYMED 1 4.2 18:11:30 23° NNW 18:13:15 32° WNW 18:17:06 10° SW
ATLAS CENTAUR R/B 3.0 18:12:19 10° SW 18:19:17 59° SW 18:19:17 59° SW
Cosmos 1937 Rocket 3.9 18:16:12 10° NNW 18:21:06 60° W 18:21:06 60° W
Cosmos 1763 Rocket 4.3 18:24:33 10° SW 18:28:45 46° W 18:28:45 46° W
Cosmos 2360 Rocket 4.5 18:26:37 10° N 18:27:22 13° N 18:27:22 13° N
ISS -0.3 18:27:33 10° WNW 18:27:49 12° WNW 18:27:49 12° WNW
CZ-2C R/B 4.3 18:28:53 11° N 18:33:09 30° WNW 18:37:37 10° WSW
USA 267 3.8 18:35:05 45° N 18:35:05 45° N 18:40:59 10° WNW
Cosmos 2369 4.5 18:33:47 10° NNW 18:38:07 49° WNW 18:38:07 49° WNW
Lacrosse 5 rocket 4.3 18:39:14 10° NW 18:39:29 11° NW 18:39:29 11° NW
Cosmos 2322 Rocket 4.4 18:40:14 10° NNW 18:41:19 15° N 18:41:19 15° N
Cosmos 1697 Rocket 4.1 18:51:09 10° NW 18:56:05 33° WSW 18:56:10 33° WSW
Cosmos 1980 Rocket 3.6 18:51:25 10° NW 18:54:31 32° NW 18:54:31 32° NW
SL-16 R/B 4.4 18:51:56 10° NNW 18:53:08 16° NNW 18:53:08 16° NNW
ATLAS 2AS CENTAUR R/B 4.3 18:56:56 10° NW 19:02:55 26° N 19:02:55 26° N
CZ-4C R/B 4.1 19:37:28 10° NW 19:41:21 36° WNW 19:41:21 36° WNW
